Westminster, MD

1:28 AM EDT on July 25, 2017 (GMT -0400)
Carroll County Regional-Poage

Weather History for KDMW - October, 2012

Change the Weather History Date:

Tuesday, October 30, 2012

  Actual Average (KTHV) Record (KTHV)
Temperature  
Mean Temperature 42 °F -  
Max Temperature 46 °F 0 °F 82 °F (2016)
Min Temperature 39 °F - 27 °F (2000)
Degree Days  
Heating Degree Days 22    
Moisture  
Dew Point 38 °F    
Average Humidity 87    
Maximum Humidity 93    
Minimum Humidity 81    
Precipitation  
Precipitation 0.46 in - - ()
Sea Level Pressure  
Sea Level Pressure 29.04 in    
Wind  
Wind Speed 16 mph (SSW)    
Max Wind Speed 24 mph    
Max Gust Speed 36 mph    
Visibility 7 miles    
Events Rain    
Averages and records for this station are not official NWS values.
T = Trace of Precipitation, MM = Missing Value Source: NWS Daily Summary

Daily Weather History Graph

Daily Weather History Graph

Search for Another Location

Airport or City:

Trip Planner

Search our weather history database for the weather conditions in past years. The results will help you decide how hot, cold, wet, or windy it might be!

Date:

Astronomy

Oct. 30, 2012 Rise Set
Actual Time 7:34 AM EDT 6:08 PM EDT
Civil Twilight 7:06 AM EDT 6:35 PM EDT
Nautical Twilight 6:35 AM EDT 7:07 PM EDT
Astronomical Twilight 6:03 AM EDT 7:38 PM EDT
Moon 6:36 PM EDT (10/30) 8:19 AM EDT (10/30)
Length of Visible Light 11h 29m
Length of Day
10h 33m
Full, 99% of the Moon is Illuminated
Oct 30
Full
Nov 6
Last Quarter
Nov 13
New
Nov 20
First Quarter
Nov 28
Full

Hourly Weather History & Observations

Time (EDT) Temp. Windchill Dew Point Humidity Pressure Visibility Wind Dir Wind Speed Gust Speed Precip Events Conditions
12:07 AM 46.4 °F 38.3 °F 42.8 °F 87% 28.50 in 4.0 mi West 23.0 mph 34.5 mph 0.04 in Rain Rain
12:28 AM 46.4 °F 39.5 °F 42.8 °F 87% 28.51 in 4.0 mi West 17.3 mph 32.2 mph 0.08 in Rain Rain
12:49 AM 46.4 °F 38.5 °F 42.8 °F 87% 28.51 in 5.0 mi West 21.9 mph 34.5 mph 0.01 in Rain Heavy Rain
1:10 AM 44.6 °F 36.9 °F 42.8 °F 93% 28.53 in 4.0 mi WSW 18.4 mph 23.0 mph 0.05 in Rain Rain
1:31 AM 44.6 °F 35.7 °F 41.0 °F 87% 28.53 in 4.0 mi West 24.2 mph 35.7 mph 0.11 in Rain Rain
1:52 AM 44.6 °F 35.9 °F 41.0 °F 87% 28.52 in 4.0 mi West 23.0 mph 32.2 mph 0.01 in   Heavy Drizzle
2:13 AM 44.6 °F 36.9 °F 41.0 °F 87% 28.55 in 4.0 mi WSW 18.4 mph 34.5 mph 0.02 in   Heavy Drizzle
2:34 AM 42.8 °F 34.3 °F 39.2 °F 87% 28.59 in 4.0 mi SW 19.6 mph 26.5 mph 0.04 in Rain Rain
2:55 AM 42.8 °F 35.1 °F 39.2 °F 87% 28.62 in 4.0 mi SW 16.1 mph 31.1 mph 0.01 in Rain Rain
3:19 AM 42.8 °F 34.5 °F 39.2 °F 87% 28.65 in 5.0 mi SW 18.4 mph 28.8 mph 0.03 in Rain Rain
3:40 AM 42.8 °F 33.8 °F 39.2 °F 87% 28.67 in 7.0 mi SW 21.9 mph 27.6 mph 0.04 in Rain Light Rain
4:01 AM 42.8 °F 34.8 °F 39.2 °F 87% 28.71 in 5.0 mi SSW 17.3 mph 25.3 mph N/A Rain Rain
4:22 AM 42.8 °F 34.8 °F 39.2 °F 87% 28.74 in 7.0 mi South 17.3 mph 24.2 mph 0.01 in Rain Rain
4:43 AM 42.8 °F 34.5 °F 39.2 °F 87% 28.78 in 4.0 mi South 18.4 mph 23.0 mph 0.03 in   Overcast
5:25 AM 41.0 °F 32.5 °F 37.4 °F 87% 28.85 in 7.0 mi South 17.3 mph 23.0 mph 0.03 in Rain Rain
5:46 AM 39.2 °F 29.8 °F 37.4 °F 93% 28.88 in 5.0 mi South 18.4 mph 27.6 mph N/A Rain Rain
6:07 AM 39.2 °F 29.8 °F 37.4 °F 93% 28.91 in 4.0 mi South 18.4 mph 28.8 mph 0.01 in Rain Rain
6:28 AM 39.2 °F 30.8 °F 37.4 °F 93% 28.94 in 7.0 mi South 15.0 mph 24.2 mph 0.02 in Rain Rain
6:49 AM 39.2 °F 30.8 °F 37.4 °F 93% 28.96 in 7.0 mi South 15.0 mph 19.6 mph N/A Rain Rain
7:13 AM 39.2 °F 30.5 °F 37.4 °F 93% 28.99 in 5.0 mi South 16.1 mph 23.0 mph 0.01 in Rain Rain
7:34 AM 39.2 °F 32.0 °F 35.6 °F 87% 29.01 in 5.0 mi South 11.5 mph 23.0 mph 0.03 in Rain Rain
7:52 AM 39.2 °F 30.8 °F 35.6 °F 87% 29.03 in 5.0 mi South 15.0 mph 20.7 mph 0.01 in Rain Rain
8:16 AM 39.2 °F 31.6 °F 37.4 °F 93% 29.06 in 3.0 mi SSE 12.7 mph - 0.03 in Rain Rain
8:37 AM 39.2 °F 31.2 °F 35.6 °F 87% 29.08 in 4.0 mi South 13.8 mph - 0.04 in Rain Rain
8:58 AM 39.2 °F 31.6 °F 35.6 °F 87% 29.10 in 7.0 mi SSE 12.7 mph - 0.01 in Rain Rain
9:19 AM 39.2 °F 30.8 °F 35.6 °F 87% 29.12 in 7.0 mi SSE 15.0 mph 18.4 mph 0.01 in Rain Rain
9:40 AM 39.2 °F 30.5 °F 35.6 °F 87% 29.13 in 7.0 mi South 16.1 mph 21.9 mph 0.02 in Rain Rain
10:01 AM 39.2 °F 30.5 °F 35.6 °F 87% 29.15 in 7.0 mi South 16.1 mph 21.9 mph N/A Rain Light Rain
10:22 AM 39.2 °F 31.6 °F 35.6 °F 87% 29.17 in 7.0 mi South 12.7 mph 19.6 mph 0.01 in Rain Light Rain
10:43 AM 39.2 °F 32.5 °F 35.6 °F 87% 29.18 in 7.0 mi South 10.4 mph - 0.01 in Rain Light Rain
11:04 AM 39.2 °F 32.0 °F 37.4 °F 93% 29.19 in 7.0 mi South 11.5 mph - 0.01 in   Drizzle
11:25 AM 41.0 °F 34.7 °F 37.4 °F 87% 29.20 in 10.0 mi SSE 10.4 mph - 0.01 in   Drizzle
11:49 AM 41.0 °F 34.7 °F 37.4 °F 87% 29.22 in 10.0 mi South 10.4 mph - N/A   Drizzle
12:10 PM 41.0 °F 36.4 °F 37.4 °F 87% 29.23 in 10.0 mi South 6.9 mph - N/A Rain Light Rain
12:52 PM 42.8 °F 37.5 °F 37.4 °F 81% 29.25 in 10.0 mi SSW 9.2 mph - N/A   Overcast
1:13 PM 42.8 °F 36.6 °F 39.2 °F 87% 29.26 in 10.0 mi South 11.5 mph - N/A Rain Light Rain
1:34 PM 42.8 °F 38.6 °F 37.4 °F 81% 29.26 in 10.0 mi South 6.9 mph - N/A   Light Drizzle
1:55 PM 42.8 °F 37.5 °F 37.4 °F 81% 29.27 in 10.0 mi SSW 9.2 mph - N/A Rain Light Rain
2:16 PM 42.8 °F 38.6 °F 37.4 °F 81% 29.27 in 10.0 mi South 6.9 mph - N/A Rain Light Rain
2:37 PM 42.8 °F 38.0 °F 37.4 °F 81% 29.28 in 10.0 mi SSW 8.1 mph - N/A Rain Light Rain
2:58 PM 42.8 °F 37.5 °F 37.4 °F 81% 29.29 in 7.0 mi SW 9.2 mph - N/A Rain Rain
3:16 PM 42.8 °F 38.6 °F 37.4 °F 81% 29.30 in 10.0 mi SSW 6.9 mph - 0.01 in Rain Light Rain
3:40 PM 41.0 °F 37.1 °F 37.4 °F 87% 29.31 in 10.0 mi SW 5.8 mph - 0.02 in Rain Light Rain
4:01 PM 42.8 °F 40.1 °F 37.4 °F 81% 29.32 in 7.0 mi South 4.6 mph - 0.01 in Rain Light Rain
4:25 PM 41.0 °F 37.1 °F 37.4 °F 87% 29.33 in 7.0 mi South 5.8 mph - 0.02 in Rain Rain
4:46 PM 41.0 °F 37.1 °F 37.4 °F 87% 29.34 in 7.0 mi South 5.8 mph - N/A Rain Rain
5:28 PM 41.0 °F 39.0 °F 37.4 °F 87% 29.36 in 7.0 mi SSE 3.5 mph - 0.01 in Rain Rain
5:49 PM 41.0 °F 38.0 °F 37.4 °F 87% 29.36 in 10.0 mi SSE 4.6 mph - N/A   Light Drizzle
6:31 PM 41.0 °F 38.0 °F 37.4 °F 87% 29.38 in 7.0 mi SE 4.6 mph - N/A Rain Light Rain
7:13 PM 39.2 °F 34.2 °F 35.6 °F 87% 29.40 in 5.0 mi SW 6.9 mph - 0.01 in Rain Rain
7:34 PM 39.2 °F 35.9 °F 35.6 °F 87% 29.41 in 10.0 mi SSW 4.6 mph - 0.02 in Rain Light Rain
7:55 PM 39.2 °F 37.0 °F 35.6 °F 87% 29.42 in 10.0 mi SW 3.5 mph - N/A Rain Rain
8:10 PM 39.2 °F 35.9 °F 35.6 °F 87% 29.42 in 10.0 mi SW 4.6 mph - 0.01 in Rain Light Rain